SVA252 OEJN-OEMA

Flight info

Callsign SVA252
Flight time 0h 31m
Altitude 23000
Route DATAP3V DATAP A424 RULEB/N0345F220 A424 DEGVU DEGVU1H
Aircraft A20N/M-SDE2E3FGHIRWXY/LB1

Departure

Time 2026-05-06 22:19
Airport King Abdulaziz International Airport (OEJN)

Arrival

Time 2026-05-06 22:50
Airport Prince Mohammad Bin Abdulaziz Airport (OEMA)
Time Latitude Longitude Altitude Speed Heading
2026-05-06 22:03 21.66515 39.17303 32 ft 0 kts 240°
2026-05-06 22:07 21.66515 39.17304 32 ft 0 kts 240°
2026-05-06 22:11 21.66518 39.17308 33 ft 3 kts 240°
2026-05-06 22:12 21.66531 39.17332 33 ft 4 kts 239°
2026-05-06 22:12 21.66544 39.17355 30 ft 4 kts 232°
2026-05-06 22:12 21.66561 39.17374 31 ft 4 kts 210°
2026-05-06 22:12 21.66582 39.17380 32 ft 2 kts 160°
2026-05-06 22:13 21.66584 39.17380 33 ft 1 kts 158°
2026-05-06 22:14 21.66585 39.17380 33 ft 0 kts 158°
2026-05-06 22:16 21.66579 39.17382 31 ft 3 kts 158°
2026-05-06 22:16 21.66544 39.17405 33 ft 8 kts 148°
2026-05-06 22:16 21.66504 39.17457 33 ft 10 kts 127°
2026-05-06 22:16 21.66496 39.17540 33 ft 13 kts 76°
2026-05-06 22:17 21.66535 39.17650 33 ft 18 kts 70°
2026-05-06 22:17 21.66583 39.17793 35 ft 22 kts 70°
2026-05-06 22:17 21.66636 39.17945 41 ft 16 kts 69°
2026-05-06 22:17 21.66706 39.18021 46 ft 16 kts
2026-05-06 22:18 21.66762 39.18002 46 ft 3 kts 340°
2026-05-06 22:18 21.66840 39.17972 46 ft 41 kts 340°
2026-05-06 22:18 21.67415 39.17745 43 ft 132 kts 340°
2026-05-06 22:18 21.68420 39.17349 542 ft 160 kts 340°
2026-05-06 22:19 21.69506 39.16927 1449 ft 168 kts 341°
2026-05-06 22:19 21.70677 39.16539 1896 ft 187 kts 347°
2026-05-06 22:19 21.72038 39.16233 2172 ft 211 kts 349°
2026-05-06 22:19 21.73578 39.16005 2537 ft 236 kts
2026-05-06 22:20 21.75184 39.16604 2994 ft 257 kts 34°
2026-05-06 22:20 21.76615 39.17821 3713 ft 266 kts 37°
2026-05-06 22:20 21.78080 39.19071 4486 ft 272 kts 37°
2026-05-06 22:20 21.79615 39.20317 5217 ft 280 kts 36°
2026-05-06 22:21 21.81230 39.21535 5955 ft 287 kts 30°
2026-05-06 22:21 21.83111 39.22335 6696 ft 293 kts 16°
2026-05-06 22:21 21.85048 39.22960 7473 ft 297 kts 16°
2026-05-06 22:21 21.87048 39.23594 8296 ft 301 kts 16°
2026-05-06 22:22 21.89070 39.24233 9089 ft 305 kts 16°
2026-05-06 22:22 21.91127 39.24883 9877 ft 310 kts 16°
2026-05-06 22:22 21.93235 39.25546 10387 ft 325 kts 16°
2026-05-06 22:22 21.95488 39.26254 10636 ft 349 kts 16°
2026-05-06 22:23 21.97930 39.27023 10823 ft 373 kts 16°
2026-05-06 22:23 22.00495 39.27834 10965 ft 395 kts 16°
2026-05-06 22:23 22.03210 39.28695 11142 ft 414 kts 16°
2026-05-06 22:23 22.06004 39.29579 11627 ft 422 kts 16°
2026-05-06 22:24 22.08806 39.30466 12209 ft 427 kts 16°
2026-05-06 22:24 22.11672 39.31372 12812 ft 431 kts 16°
2026-05-06 22:24 22.14566 39.32291 13417 ft 436 kts 16°
2026-05-06 22:24 22.17492 39.33225 13987 ft 441 kts 16°
2026-05-06 22:25 22.20449 39.34169 14543 ft 444 kts 16°
2026-05-06 22:25 22.23467 39.35126 15099 ft 448 kts 15°
2026-05-06 22:25 22.26467 39.36075 15642 ft 451 kts 15°
2026-05-06 22:25 22.29495 39.37038 16175 ft 455 kts 15°
2026-05-06 22:26 22.32546 39.38009 16697 ft 458 kts 15°
2026-05-06 22:26 22.35613 39.38986 17205 ft 461 kts 15°
2026-05-06 22:26 22.38704 39.39970 17713 ft 464 kts 15°
2026-05-06 22:26 22.41821 39.40965 18186 ft 468 kts 15°
2026-05-06 22:27 22.44953 39.41967 18591 ft 471 kts 15°
2026-05-06 22:27 22.48063 39.42961 18975 ft 474 kts 15°
2026-05-06 22:27 22.51243 39.43976 19406 ft 475 kts 15°
2026-05-06 22:27 22.54408 39.44988 19988 ft 473 kts 15°
2026-05-06 22:28 22.57565 39.45998 20581 ft 471 kts 14°
2026-05-06 22:28 22.60703 39.47001 21196 ft 470 kts 14°
2026-05-06 22:28 22.63841 39.48004 21823 ft 468 kts 14°
2026-05-06 22:28 22.66956 39.49022 22457 ft 467 kts 15°
2026-05-06 22:29 22.70017 39.50117 22826 ft 473 kts 17°
2026-05-06 22:29 22.73163 39.51328 22931 ft 485 kts 18°
2026-05-06 22:29 22.76371 39.52614 22941 ft 496 kts 18°
2026-05-06 22:29 22.79628 39.53933 22941 ft 503 kts 18°
2026-05-06 22:30 22.82923 39.55256 22948 ft 504 kts 18°
2026-05-06 22:30 22.86219 39.56562 22952 ft 505 kts 18°
2026-05-06 22:30 22.89545 39.57860 22954 ft 505 kts 17°
2026-05-06 22:30 22.92866 39.59143 22954 ft 505 kts 17°
2026-05-06 22:31 22.96175 39.60418 22957 ft 505 kts 17°
2026-05-06 22:31 22.99502 39.61696 22959 ft 504 kts 16°
2026-05-06 22:31 23.02939 39.62556 22968 ft 500 kts
2026-05-06 22:31 23.06372 39.62793 22969 ft 498 kts 359°
2026-05-06 22:32 23.09840 39.62971 22971 ft 498 kts 359°
2026-05-06 22:32 23.13305 39.63141 22971 ft 498 kts 359°
2026-05-06 22:32 23.16775 39.63312 22972 ft 498 kts 359°
2026-05-06 22:32 23.20233 39.63485 22969 ft 498 kts 359°
2026-05-06 22:33 23.23668 39.63664 22964 ft 482 kts 359°
2026-05-06 22:33 23.26988 39.63847 22868 ft 462 kts 359°
2026-05-06 22:33 23.30163 39.64023 22360 ft 453 kts 359°
2026-05-06 22:33 23.33300 39.64189 21728 ft 449 kts 359°
2026-05-06 22:34 23.36409 39.64348 21114 ft 446 kts 359°
2026-05-06 22:34 23.39505 39.64504 20510 ft 442 kts
2026-05-06 22:34 23.42576 39.64661 19913 ft 439 kts
2026-05-06 22:34 23.45630 39.64820 19343 ft 436 kts
2026-05-06 22:35 23.48650 39.64981 18793 ft 433 kts
2026-05-06 22:35 23.51606 39.65140 18247 ft 416 kts
2026-05-06 22:35 23.54484 39.65294 17590 ft 401 kts
2026-05-06 22:35 23.57233 39.65437 16959 ft 389 kts
2026-05-06 22:36 23.59903 39.65576 16339 ft 379 kts
2026-05-06 22:36 23.62474 39.65709 15737 ft 370 kts
2026-05-06 22:36 23.65020 39.65840 15139 ft 362 kts
2026-05-06 22:36 23.67512 39.65967 14552 ft 355 kts
2026-05-06 22:37 23.69966 39.66092 13977 ft 349 kts
2026-05-06 22:37 23.72388 39.66443 13372 ft 356 kts 12°
2026-05-06 22:37 23.74817 39.67077 12740 ft 361 kts 12°
2026-05-06 22:37 23.77311 39.67726 12117 ft 365 kts 12°
2026-05-06 22:38 23.79788 39.68369 11513 ft 368 kts 12°
2026-05-06 22:38 23.82283 39.69019 10919 ft 369 kts 11°
2026-05-06 22:38 23.84750 39.69662 10329 ft 369 kts 11°
2026-05-06 22:38 23.87248 39.70314 9759 ft 368 kts 11°
2026-05-06 22:39 23.89741 39.70968 9133 ft 367 kts 11°
2026-05-06 22:39 23.92224 39.71621 8518 ft 364 kts 11°
2026-05-06 22:39 23.94718 39.72277 7907 ft 362 kts 11°
2026-05-06 22:39 23.97159 39.72919 7323 ft 358 kts 11°
2026-05-06 22:40 23.98746 39.73338 7128 ft 350 kts 11°
2026-05-06 22:40 24.01084 39.73956 6999 ft 332 kts 11°
2026-05-06 22:40 24.03268 39.74532 7014 ft 312 kts 11°
2026-05-06 22:40 24.05319 39.75073 7017 ft 297 kts 10°
2026-05-06 22:41 24.09322 39.76118 6543 ft 290 kts 10°
2026-05-06 22:41 24.11285 39.76630 6211 ft 285 kts 10°
2026-05-06 22:41 24.13187 39.77129 5905 ft 280 kts 10°
2026-05-06 22:42 24.15090 39.77625 5429 ft 282 kts 11°
2026-05-06 22:42 24.16979 39.78119 4956 ft 282 kts 11°
2026-05-06 22:42 24.18859 39.78427 4579 ft 263 kts 356°
2026-05-06 22:42 24.20585 39.78212 4510 ft 236 kts 346°
2026-05-06 22:43 24.22118 39.77873 4503 ft 214 kts 345°
2026-05-06 22:43 24.23503 39.77568 4507 ft 198 kts 345°
2026-05-06 22:43 24.24841 39.77282 4509 ft 188 kts 346°
2026-05-06 22:43 24.26098 39.77015 4548 ft 181 kts 346°
2026-05-06 22:44 24.27325 39.76755 4521 ft 177 kts 345°
2026-05-06 22:44 24.28524 39.76502 4508 ft 175 kts 345°
2026-05-06 22:44 24.29724 39.76247 4501 ft 176 kts 346°
2026-05-06 22:44 24.30930 39.75992 4504 ft 177 kts 345°
2026-05-06 22:45 24.32135 39.75737 4505 ft 176 kts 345°
2026-05-06 22:45 24.33340 39.75482 4507 ft 176 kts 346°
2026-05-06 22:45 24.34548 39.75227 4503 ft 177 kts 346°
2026-05-06 22:45 24.35755 39.74972 4506 ft 177 kts 346°
2026-05-06 22:46 24.36962 39.74717 4500 ft 173 kts 345°
2026-05-06 22:46 24.38125 39.74471 4508 ft 168 kts 345°
2026-05-06 22:46 24.39270 39.74228 4511 ft 167 kts 346°
2026-05-06 22:46 24.40414 39.73986 4515 ft 167 kts 345°
2026-05-06 22:47 24.41558 39.73743 4406 ft 168 kts 346°
2026-05-06 22:47 24.42702 39.73501 4222 ft 166 kts 346°
2026-05-06 22:47 24.43833 39.73261 4029 ft 165 kts 346°
2026-05-06 22:47 24.44958 39.73023 3813 ft 158 kts 346°
2026-05-06 22:48 24.46028 39.72797 3612 ft 154 kts 346°
2026-05-06 22:48 24.47075 39.72575 3456 ft 152 kts 347°
2026-05-06 22:48 24.48104 39.72356 3248 ft 149 kts 347°
2026-05-06 22:48 24.49126 39.72139 3051 ft 149 kts 347°
2026-05-06 22:49 24.50136 39.71925 2846 ft 146 kts 346°
2026-05-06 22:49 24.51135 39.71713 2646 ft 145 kts 346°
2026-05-06 22:49 24.52124 39.71504 2448 ft 145 kts 346°
2026-05-06 22:49 24.53115 39.71296 2243 ft 144 kts 346°
2026-05-06 22:50 24.54098 39.71089 2112 ft 143 kts 346°
2026-05-06 22:50 24.54964 39.70896 2095 ft 78 kts 347°
2026-05-06 22:50 24.55249 39.70838 2097 ft 34 kts 348°
2026-05-06 22:50 24.55470 39.70791 2102 ft 31 kts 349°
2026-05-06 22:51 24.55675 39.70747 2105 ft 29 kts 349°
2026-05-06 22:51 24.55865 39.70707 2110 ft 27 kts 349°
2026-05-06 22:51 24.56042 39.70685 2115 ft 25 kts
2026-05-06 22:51 24.56182 39.70711 2119 ft 14 kts 19°
2026-05-06 22:52 24.56242 39.70733 2120 ft 7 kts 21°
2026-05-06 22:52 24.56277 39.70794 2121 ft 21 kts 94°
2026-05-06 22:52 24.56206 39.70839 2121 ft 12 kts 179°
2026-05-06 22:52 24.56064 39.70861 2116 ft 23 kts 167°
2026-05-06 22:53 24.56008 39.70980 2115 ft 19 kts 78°
2026-05-06 22:53 24.55968 39.71077 2115 ft 15 kts 164°
2026-05-06 22:53 24.55869 39.71099 2113 ft 15 kts 168°
2026-05-06 22:53 24.55769 39.71121 2111 ft 15 kts 168°
2026-05-06 22:54 24.55672 39.71150 2109 ft 13 kts 135°
2026-05-06 22:54 24.55672 39.71221 2110 ft 8 kts 78°
2026-05-06 22:54 24.55679 39.71260 2109 ft 0 kts 79°